Wind_Speed
35 32 30 32 37 42 44 44 44 43 41 38 36 34 33 30 28 27 27 27 28 28 28 28 28 27 25 24 24 24 23 23 22 20 19 19 17 17 16 16 15 15 16 16 15 14 12 12 13 13 12 13 12 12 12 11 10 10 9 8 7 8 8
35 34 31 32 37 43 45 46 45 44 42 40 37 36 34 32 29 28 28 28 28 28 28 28 28 27 25 25 24 24 24 23 22 22 21 21 19 18 18 17 16 16 15 15 14 12 12 12 14 14 13 13 13 13 12 11 10 9 9 9 8 8 8
36 36 34 32 37 43 46 46 46 45 44 42 39 37 35 33 29 28 28 29 28 27 27 27 27 26 25 25 24 24 23 23 23 23 23 22 21 20 18 18 18 17 16 15 15 14 13 12 14 14 14 13 13 13 12 11 10 10 10 10 9 9 9
36 37 36 33 34 42 46 46 46 46 45 43 40 38 35 32 29 27 27 28 28 27 27 28 27 26 25 25 25 24 23 23 23 23 23 22 21 20 19 19 19 18 18 17 16 15 15 13 14 14 14 14 13 13 12 10 10 11 11 11 10 10 9
36 37 37 34 33 39 45 46 46 46 45 44 41 38 35 32 30 28 28 27 27 26 25 26 27 27 26 25 25 24 23 23 23 22 21 20 20 20 20 19 19 19 19 18 16 16 16 15 15 15 15 15 14 13 12 10 10 12 12 12 11 11 11
36 37 38 37 35 37 43 46 47 47 45 44 43 40 36 33 31 29 27 27 27 26 24 25 27 28 27 26 26 25 24 23 22 22 21 20 20 20 20 19 19 19 18 17 16 16 16 16 16 15 15 14 13 13 12 11 10 12 13 13 12 11 12
35 37 39 38 35 36 40 44 46 46 45 44 43 41 38 35 32 30 28 28 28 27 26 26 27 28 27 26 26 26 25 23 21 21 20 20 20 20 20 19 19 19 18 17 17 17 17 17 16 15 14 13 13 13 12 12 11 12 13 13 12 12 12
34 36 39 38 35 34 37 41 44 45 44 44 43 43 40 37 34 32 29 27 28 29 28 27 27 28 28 27 27 26 25 23 21 21 20 20 21 21 20 19 18 18 18 17 17 17 17 16 15 14 13 13 13 13 13 13 12 12 13 13 12 12 12
31 33 35 34 31 30 31 35 40 43 44 44 45 44 42 40 37 35 31 29 29 30 29 27 27 28 28 27 27 26 25 24 22 22 21 20 21 20 19 18 17 17 18 18 17 17 17 16 15 14 13 13 13 13 13 13 12 12 12 12 11 12 12
26 27 28 29 29 30 31 32 34 38 41 44 46 45 43 42 39 36 33 31 31 30 28 27 27 28 29 27 26 26 25 25 23 23 22 22 21 20 19 18 17 18 18 17 16 17 17 16 16 15 14 14 14 13 13 13 13 13 12 11 11 10 11
22 24 26 27 29 31 33 36 37 40 42 43 45 45 44 44 42 40 37 35 34 31 28 26 27 28 29 28 26 26 26 25 24 24 23 23 22 21 19 19 18 18 17 16 16 17 16 16 16 15 15 15 15 14 13 12 12 13 13 12 10 9 9
21 23 22 22 23 23 28 35 39 41 42 40 38 38 36 35 37 38 38 36 34 33 30 28 28 28 29 28 26 26 26 26 25 25 24 24 23 21 21 20 18 18 17 16 16 16 16 15 15 14 14 14 14 14 13 12 12 12 13 12 11 9 9
15 18 21 25 28 26 25 29 35 39 40 38 38 39 37 33 32 33 34 34 34 33 30 28 28 29 30 29 27 26 27 26 26 25 24 23 22 21 21 20 19 18 17 16 15 15 15 15 15 14 13 12 12 13 12 12 12 12 12 11 11 10 10
8 9 14 23 30 29 24 26 32 39 43 43 42 42 41 38 36 36 36 36 36 34 29 26 27 29 30 30 28 27 27 26 26 25 23 22 21 21 22 21 20 19 17 16 16 15 15 15 15 15 14 13 12 12 12 12 12 11 11 11 11 11 11
9 11 13 17 24 28 26 25 30 35 39 42 41 40 40 39 40 40 38 37 36 34 30 27 27 28 30 31 30 28 27 27 26 26 24 22 20 20 22 22 21 20 18 17 17 16 16 15 15 15 15 15 14 13 13 13 12 11 11 11 12 12 12
11 18 19 17 20 25 25 24 26 28 32 37 39 40 40 40 41 41 39 37 35 33 30 28 27 27 29 31 30 29 29 28 27 27 27 25 24 23 21 21 22 21 20 19 18 17 16 16 16 17 16 16 15 15 15 14 13 13 12 12 12 13 13
7 13 14 12 14 17 18 20 24 26 29 33 36 38 38 38 40 40 38 37 36 33 30 28 27 28 30 30 29 29 29 28 27 27 27 27 28 27 24 21 21 21 20 20 19 19 18 18 18 18 18 17 16 16 16 16 15 14 14 14 14 14 15
4 6 8 10 13 13 12 16 21 24 27 30 33 34 33 34 36 36 35 35 34 31 30 29 28 30 31 30 29 29 28 27 26 27 27 26 25 24 24 23 21 21 21 21 21 21 20 20 20 20 19 19 18 18 18 17 17 16 16 16 15 15 15
2 3 4 7 9 9 8 13 18 22 25 29 31 30 29 31 33 33 33 33 32 30 29 29 29 30 31 30 29 29 28 27 27 27 26 24 23 22 22 22 22 22 22 21 21 22 22 21 21 21 20 20 20 20 19 19 19 19 18 18 17 16 16
1 3 3 3 4 5 5 8 13 18 20 22 24 26 27 29 31 32 33 33 31 29 29 29 29 27 26 26 26 26 26 27 28 27 25 23 23 23 21 20 21 22 22 22 21 21 22 22 21 21 20 20 20 21 22 22 21 21 21 20 20 18 18
7 6 5 4 2 2 2 2 7 15 18 17 18 20 24 26 28 30 31 30 29 29 30 31 30 27 24 23 24 24 24 25 25 24 23 22 22 23 23 22 23 23 24 25 24 21 20 21 21 21 21 20 21 22 23 23 22 22 22 22 22 21 20
8 8 7 7 6 5 6 7 5 8 16 18 16 16 19 22 24 25 25 25 25 26 27 28 26 24 25 26 26 25 24 23 22 22 23 23 22 23 24 25 25 24 24 27 28 26 23 20 18 19 20 21 21 22 23 23 22 22 22 23 23 22 21
9 8 6 6 6 8 10 11 11 9 10 14 14 14 16 18 19 20 20 22 23 23 23 23 23 24 25 25 24 24 24 23 22 21 22 23 23 23 24 26 27 26 26 26 26 26 26 23 19 19 21 22 22 22 23 23 23 23 23 24 24 23 21
11 9 8 8 9 10 12 12 13 14 13 12 11 10 11 13 15 17 18 18 19 19 18 18 20 22 22 21 20 22 22 23 22 21 21 24 25 26 27 27 28 28 28 28 24 22 23 24 23 23 23 23 23 23 24 24 24 25 24 24 24 23 22
15 14 12 12 14 15 15 15 16 17 17 16 17 15 11 9 9 12 14 14 16 17 15 15 16 17 18 19 21 22 21 21 22 22 23 24 27 28 30 30 29 28 28 28 25 23 21 22 23 23 23 23 24 25 25 26 26 26 25 24 24 24 23
18 16 15 15 16 16 16 16 16 16 16 16 16 15 13 10 8 8 8 9 12 13 12 12 12 13 14 17 20 20 19 20 22 23 23 24 25 28 29 30 29 27 25 25 26 26 25 23 23 24 23 23 24 25 26 27 26 26 26 26 26 26 26
15 14 14 15 14 13 14 14 14 14 14 13 11 10 9 10 12 14 14 12 12 12 11 9 8 8 9 11 12 12 12 12 15 18 19 20 21 22 23 24 23 22 20 20 22 23 24 26 27 27 27 25 25 26 27 27 25 26 28 29 28 28 28
13 13 13 11 10 10 12 14 15 15 14 13 11 10 10 13 17 19 17 15 14 13 11 10 9 8 7 6 7 8 7 6 8 10 11 12 12 12 13 13 13 14 14 16 16 14 15 19 21 22 24 25 24 25 26 24 23 24 26 27 27 27 28
13 13 12 10 9 8 10 12 15 16 14 13 14 13 11 13 17 18 16 15 15 13 11 11 11 10 9 7 6 6 6 6 6 5 4 4 3 4 4 4 6 7 8 10 11 10 11 13 14 14 18 19 18 18 19 19 19 19 20 21 22 23 24
11 11 10 10 9 8 8 10 13 14 13 11 12 12 10 11 15 17 17 17 16 13 10 11 11 11 9 8 7 7 7 7 6 5 4 4 3 2 2 3 3 2 1 0 1 1 4 7 8 9 10 11 9 9 10 11 12 12 13 15 17 19 20
8 7 8 8 8 7 7 9 12 13 13 11 10 10 10 11 14 17 17 17 16 13 11 10 10 10 9 8 7 6 5 5 5 5 4 4 4 5 6 7 7 6 6 5 5 5 4 4 4 4 4 4 4 4 5 6 7 8 9 10 11 12 14
6 5 5 5 5 5 6 7 9 9 10 9 7 6 7 8 10 13 14 14 13 12 11 10 9 9 8 7 6 5 4 4 4 4 4 5 5 5 6 7 8 8 7 7 7 6 6 5 5 4 2 2 2 3 4 4 4 5 5 5 5 6 6
6 6 7 7 7 7 7 7 8 8 8 8 8 7 6 6 6 7 9 8 7 8 8 7 7 7 6 5 5 5 5 5 5 5 5 5 5 4 4 4 5 5 5 5 6 7 7 6 6 5 4 3 3 2 2 1 1 0 0 0 1 2 2
6 7 9 11 11 11 10 11 11 11 11 11 11 10 9 7 6 6 5 5 4 4 4 4 5 6 5 4 3 3 3 3 3 4 6 7 7 7 5 3 1 2 2 3 4 6 6 6 5 5 4 4 3 3 3 2 2 2 3 2 1 1 1
6 7 8 9 9 10 10 10 11 12 12 12 12 11 10 9 7 5 4 3 3 4 5 5 5 5 5 4 4 2 1 0 2 4 6 8 8 8 7 6 4 3 2 1 1 3 3 3 2 2 2 2 2 2 2 1 1 2 2 1 1 3 3
7 6 6 6 6 6 7 7 8 8 9 10 11 10 10 9 8 6 4 3 4 4 4 4 4 5 5 4 4 3 3 2 3 5 6 8 8 7 6 6 6 5 5 3 2 1 1 1 2 2 2 2 3 3 4 4 4 5 5 6 6 7 7
6 5 4 4 3 3 3 4 4 4 5 6 6 7 7 7 8 7 5 2 2 3 3 3 3 4 5 5 5 5 5 5 5 6 6 6 6 6 5 4 6 7 7 6 5 4 4 5 5 6 5 5 5 6 6 7 7 7 8 8 9 9 10
5 5 4 3 2 1 1 2 2 3 4 4 5 5 4 4 5 5 5 4 3 3 4 5 6 6 6 6 7 7 7 7 8 8 7 6 6 6 5 4 5 5 6 5 5 5 5 5 5 5 5 5 5 6 6 6 7 7 7 8 8 9 9
Wind_Direction
202 203 201 201 200 199 199 199 199 199 201 203 205 206 208 210 212 214 214 213 211 210 209 210 211 212 213 216 218 219 221 223 225 225 227 226 226 226 224 222 221 217 217 220 221 221 218 216 216 217 219 223 224 223 224 225 223 221 225 228 225 221 217
202 203 201 200 200 199 200 200 200 200 202 204 205 206 208 210 212 212 212 211 210 211 211 211 211 212 214 217 219 220 222 223 224 226 229 229 231 230 227 228 227 223 220 220 221 222 222 222 221 220 219 221 225 224 225 228 226 224 228 232 233 230 222
202 203 201 200 200 200 200 200 201 201 203 204 205 206 208 211 213 212 210 209 209 211 213 213 213 213 215 218 219 221 223 223 223 225 227 229 231 230 227 228 228 226 223 220 219 221 220 220 221 221 217 217 222 224 224 226 228 226 225 227 233 238 233
202 203 201 201 202 202 201 200 201 202 203 205 206 207 209 212 214 212 210 208 208 210 213 214 214 214 216 218 219 220 222 223 223 225 226 228 230 228 228 227 226 225 224 221 221 221 220 219 219 219 216 212 215 222 224 227 233 233 228 226 229 235 238
201 202 201 201 201 201 202 202 203 203 203 205 207 209 210 212 213 213 211 209 209 211 214 215 216 216 217 218 218 219 221 222 224 224 225 226 227 227 227 227 226 226 226 223 223 222 222 222 220 217 217 214 214 221 226 231 238 238 235 232 229 231 234
199 201 201 201 201 201 202 203 204 205 205 205 207 209 210 211 212 211 210 210 212 213 216 218 218 218 218 218 218 219 220 222 224 224 225 225 226 225 224 225 226 228 227 225 225 224 223 225 224 220 219 219 220 224 229 234 240 240 238 237 235 233 233
198 201 202 202 202 201 202 203 204 205 207 207 208 209 210 211 211 211 211 212 214 215 217 218 219 220 219 219 219 220 220 221 223 224 224 223 223 224 223 223 226 228 228 226 224 222 223 224 223 221 222 225 228 232 234 237 240 238 235 236 237 237 236
199 201 202 203 204 202 202 204 205 206 207 207 207 208 210 211 212 211 211 213 215 216 218 219 220 220 220 219 219 220 220 220 222 223 223 221 221 224 224 224 225 226 227 225 220 219 222 221 218 220 225 229 233 237 238 239 240 235 231 231 232 234 238
202 202 202 203 203 201 200 201 204 205 206 208 208 209 211 212 212 212 213 215 215 217 219 220 221 221 220 220 219 219 218 219 221 222 221 220 220 222 223 222 223 224 224 222 218 219 223 221 218 222 228 231 231 233 235 238 238 233 230 228 227 231 235
201 201 201 201 203 203 200 197 200 203 205 208 209 210 212 213 213 213 214 217 216 215 217 220 221 221 221 220 218 217 217 218 220 222 221 220 220 221 221 219 219 220 220 219 218 222 224 222 221 223 227 229 227 226 229 234 235 231 227 225 224 228 231
196 199 200 200 203 208 204 199 199 203 206 209 210 210 212 214 215 215 216 219 219 217 217 218 220 220 220 220 218 216 216 217 219 221 221 221 220 219 216 214 215 217 218 220 221 223 224 223 224 223 224 226 225 225 226 231 233 228 224 223 224 228 232
194 193 188 190 199 207 208 204 202 204 208 210 207 205 207 209 211 212 213 215 217 217 216 216 219 221 221 220 217 216 216 217 219 220 221 221 221 220 216 213 214 216 217 218 220 222 223 222 222 222 223 225 225 226 226 227 228 225 223 225 228 233 239
191 187 181 194 205 209 210 209 208 207 208 210 208 206 206 207 208 209 209 207 208 210 211 211 215 219 222 222 219 217 218 219 220 221 221 221 222 222 219 215 215 216 215 216 217 219 219 219 218 220 223 225 225 227 227 227 227 225 225 227 232 238 242
179 185 187 203 210 209 205 205 208 208 207 209 210 209 208 208 210 213 214 213 214 216 216 218 219 219 221 223 222 221 221 222 224 225 223 222 223 224 223 220 217 215 213 213 215 218 219 219 219 222 225 226 224 224 227 229 231 231 231 234 236 239 241
194 214 214 212 213 212 208 205 207 207 207 208 209 209 208 207 209 213 217 220 221 221 220 222 224 224 224 224 223 224 224 225 228 229 226 223 223 223 222 220 217 213 212 214 218 221 223 225 226 228 229 228 226 225 228 231 233 233 235 239 241 242 242
208 225 226 220 217 216 212 213 213 211 211 213 214 215 213 210 212 216 219 220 220 219 220 221 225 227 227 226 226 225 225 226 228 229 227 226 225 224 221 220 217 215 216 221 225 229 230 232 235 235 234 232 229 229 231 232 234 235 236 240 242 243 243
217 238 240 233 227 221 213 214 218 217 217 218 219 218 215 212 214 216 217 217 216 215 218 221 224 226 227 227 227 226 225 226 229 233 234 233 231 226 222 220 220 222 227 230 232 235 236 237 238 238 238 238 235 234 235 236 237 238 238 240 243 245 245
209 240 254 250 245 239 223 213 214 217 219 218 218 217 214 212 214 214 215 216 213 210 213 217 222 225 226 226 226 226 228 229 232 237 241 243 243 237 229 224 224 228 234 239 242 242 240 238 239 239 238 238 238 237 238 239 240 241 240 240 243 246 249
200 229 255 255 252 246 228 217 215 216 217 214 213 213 212 213 215 216 215 213 207 205 207 214 220 223 223 223 224 227 231 234 237 239 242 244 246 244 237 231 232 233 235 239 244 246 246 242 239 239 238 239 241 242 242 243 244 245 245 243 243 246 249
0 311 314 308 286 262 242 233 223 216 209 203 204 207 207 211 215 215 213 209 206 206 207 213 219 220 217 218 221 225 230 234 236 238 239 237 236 237 235 234 236 237 236 237 237 239 244 244 241 241 240 241 242 244 246 247 249 250 250 247 245 245 248
31 26 28 26 346 276 256 239 221 218 211 198 192 192 192 195 199 201 200 200 202 205 206 212 218 219 218 221 221 221 226 230 230 231 234 234 233 235 237 239 240 240 240 241 239 236 238 241 240 240 240 241 242 243 245 247 250 251 251 249 246 245 247
50 51 56 60 67 80 82 88 122 198 214 210 201 193 190 190 191 194 195 195 197 200 201 204 209 211 214 218 219 220 223 224 224 225 229 232 234 237 240 244 247 248 247 247 246 245 244 243 239 236 238 241 241 243 245 247 248 249 250 250 248 245 245
76 68 58 57 71 82 83 89 101 127 180 202 204 202 198 192 189 191 193 194 195 197 198 200 203 205 207 210 216 221 224 225 225 226 227 232 238 242 244 247 250 252 253 253 253 251 248 248 250 247 246 247 246 247 248 248 247 247 248 248 248 246 244
85 83 82 81 88 91 90 94 101 109 123 137 144 162 183 188 189 191 192 195 198 199 202 206 210 212 212 215 223 230 231 231 234 237 237 238 242 245 247 249 251 253 254 253 253 252 247 248 251 250 247 247 248 248 247 246 245 243 243 244 245 244 243
96 95 97 98 96 91 88 91 94 95 97 99 101 105 114 132 163 183 191 201 206 205 208 214 218 221 222 225 230 235 236 235 238 244 245 244 246 247 249 251 252 252 253 254 253 254 253 249 246 245 246 247 247 246 244 242 241 240 241 242 242 243 243
104 103 104 106 102 92 85 86 88 86 84 84 87 89 91 101 115 126 142 165 180 184 187 194 201 208 214 219 225 231 235 237 241 248 250 249 251 251 251 251 250 249 253 256 254 254 255 253 248 247 248 249 248 246 243 240 240 242 243 242 242 242 243
103 110 111 108 102 90 85 86 83 81 83 84 83 80 82 98 111 112 110 115 123 125 127 137 150 165 185 200 211 218 226 233 239 246 249 248 251 252 250 249 249 249 252 255 255 252 250 251 252 252 252 251 249 249 250 249 248 247 245 242 241 241 241
99 111 116 110 98 90 92 91 85 81 81 79 78 87 98 104 108 110 109 104 98 95 97 106 113 119 129 150 177 189 196 206 217 225 230 234 242 248 247 248 253 256 255 257 260 256 245 247 253 255 255 254 250 249 251 254 255 254 252 250 248 245 241
101 106 105 95 86 88 94 95 92 89 84 73 68 80 102 114 111 108 108 102 95 91 95 104 110 113 113 116 133 151 160 168 174 174 172 182 215 242 249 261 275 277 268 264 269 267 253 250 255 255 253 253 251 249 251 255 259 260 259 258 256 251 246
99 95 89 79 78 81 85 93 96 93 87 76 65 67 82 99 102 101 101 100 99 102 109 112 115 121 124 120 120 130 142 143 135 121 110 104 90 52 40 37 23 7 349 277 297 278 240 234 235 238 241 247 254 254 254 258 261 259 258 258 256 254 252
102 85 76 75 80 83 82 92 100 99 95 88 76 69 72 81 89 96 103 107 111 117 120 116 118 127 131 129 129 140 149 137 117 106 94 79 64 57 60 60 56 57 70 85 89 91 106 132 155 180 209 227 235 238 243 249 250 247 251 256 258 257 257
103 76 66 70 87 97 101 108 113 113 110 105 96 88 89 95 101 109 116 122 126 128 127 124 126 134 137 133 131 131 122 106 102 96 78 66 63 67 70 67 59 59 72 85 92 96 98 100 108 120 143 183 206 222 235 243 249 252 258 267 275 277 272
88 74 69 70 73 75 80 90 97 97 95 95 94 91 94 106 114 116 122 127 131 137 140 141 144 148 149 141 128 114 99 89 83 67 52 45 42 40 49 64 64 61 70 84 92 97 100 100 100 103 109 114 119 134 155 179 218 230 126 319 307 305 294
95 84 83 83 75 66 65 70 76 79 79 81 85 85 87 95 101 107 118 129 146 162 169 174 174 173 180 183 159 125 96 76 53 28 13 4 357 350 338 328 4 42 51 80 101 107 112 114 108 105 112 115 110 111 113 114 119 119 111 104 78 31 334
127 100 95 95 82 68 67 70 73 75 75 75 77 78 77 79 83 89 110 139 171 186 194 205 207 201 199 201 196 183 156 75 358 352 350 345 338 329 314 295 278 280 304 323 116 124 130 140 133 116 126 141 144 148 152 167 195 209 220 250 310 324 314
154 133 115 110 96 81 77 76 75 72 67 65 64 61 59 60 62 64 83 133 172 185 188 201 219 229 228 223 221 222 227 250 300 321 334 340 339 333 312 283 268 268 277 280 260 220 211 231 256 276 268 249 247 247 249 256 262 264 266 271 283 294 297
160 153 143 134 122 108 93 77 63 52 46 45 44 43 45 46 44 44 52 84 180 215 226 238 260 265 259 257 259 254 255 266 280 295 311 327 338 343 333 294 270 265 265 266 264 262 269 276 281 286 286 281 276 274 273 274 276 276 274 273 277 283 288
139 143 153 164 160 119 75 39 12 354 349 352 357 7 18 31 40 41 34 18 343 288 276 287 298 296 287 282 280 276 273 275 278 285 295 306 317 324 321 298 274 265 262 261 263 265 270 278 284 290 293 294 295 296 296 294 292 288 282 277 276 280 284
Height
1512 1514 1517 1519 1521 1524 1526 1528 1530 1533 1535 1537 1540 1542 1544 1545 1547 1549 1551 1553 1555 1557 1559 1561 1563 1564 1566 1567 1569 1570 1571 1572 1574 1575 1576 1577 1578 1579 1580 1581 1582 1583 1585 1586 1587 1587 1588 1589 1590 1591 1591 1592 1592 1593 1594 1594 1595 1595 1595 1596 1596 1596 1597
1510 1512 1514 1516 1519 1522 1524 1526 1528 1531 1533 1535 1538 1540 1542 1544 1546 1547 1549 1552 1554 1555 1557 1559 1561 1563 1564 1566 1568 1569 1570 1571 1572 1573 1574 1575 1577 1578 1579 1580 1581 1582 1584 1585 1586 1587 1587 1588 1589 1590 1590 1591 1592 1592 1593 1593 1594 1594 1595 1595 1595 1596 1596
1507 1509 1511 1514 1516 1519 1522 1524 1526 1529 1531 1533 1536 1538 1540 1542 1544 1546 1548 1550 1552 1554 1556 1558 1559 1561 1563 1564 1566 1567 1569 1570 1571 1572 1573 1574 1575 1577 1578 1579 1580 1581 1583 1584 1585 1585 1586 1587 1588 1589 1589 1590 1591 1591 1592 1592 1593 1593 1594 1594 1595 1595 1595
1504 1507 1509 1513 1515 1517 1520 1522 1524 1526 1529 1531 1533 1536 1539 1541 1543 1544 1546 1548 1550 1552 1554 1556 1558 1559 1561 1563 1564 1566 1567 1568 1569 1570 1571 1573 1574 1575 1576 1577 1579 1580 1581 1582 1583 1584 1585 1586 1587 1588 1588 1589 1590 1590 1591 1591 1592 1592 1592 1593 1594 1594 1595
1502 1505 1508 1511 1513 1515 1518 1520 1522 1524 1527 1530 1532 1535 1537 1539 1541 1543 1545 1547 1549 1551 1553 1554 1556 1558 1559 1561 1562 1564 1565 1567 1568 1569 1570 1571 1573 1574 1575 1576 1577 1578 1579 1581 1582 1583 1583 1584 1585 1586 1587 1588 1588 1589 1589 1590 1590 1591 1591 1592 1592 1593 1593
1499 1502 1505 1508 1510 1513 1515 1518 1520 1522 1525 1528 1530 1533 1535 1538 1540 1541 1543 1546 1547 1550 1551 1553 1555 1556 1558 1560 1561 1563 1564 1566 1567 1568 1569 1570 1571 1572 1573 1575 1576 1577 1578 1579 1580 1581 1582 1583 1584 1585 1585 1586 1587 1588 1588 1589 1589 1589 1590 1590 1591 1591 1592
1497 1500 1503 1506 1508 1511 1513 1517 1519 1522 1525 1527 1529 1532 1534 1536 1538 1539 1541 1544 1546 1548 1550 1551 1553 1555 1557 1558 1560 1562 1563 1564 1566 1567 1568 1569 1570 1571 1572 1573 1574 1575 1577 1578 1579 1580 1581 1582 1582 1583 1584 1585 1586 1586 1587 1587 1588 1588 1588 1589 1589 1590 1590
1495 1498 1501 1504 1507 1510 1513 1516 1519 1521 1524 1526 1528 1530 1532 1534 1536 1538 1540 1541 1544 1546 1548 1550 1551 1553 1555 1557 1559 1561 1562 1564 1565 1566 1568 1568 1569 1570 1571 1572 1573 1574 1575 1576 1577 1579 1580 1581 1581 1582 1583 1583 1584 1585 1585 1586 1586 1587 1587 1588 1588 1588 1589
1495 1498 1500 1504 1508 1510 1514 1516 1519 1521 1523 1524 1526 1528 1530 1532 1534 1536 1538 1540 1542 1544 1546 1548 1550 1552 1554 1556 1558 1560 1561 1563 1564 1566 1567 1567 1568 1569 1570 1571 1572 1573 1574 1575 1576 1577 1578 1579 1580 1580 1581 1581 1582 1583 1584 1584 1585 1586 1586 1586 1587 1587 1588
1496 1499 1501 1504 1506 1508 1512 1516 1519 1521 1523 1523 1524 1526 1528 1530 1532 1535 1537 1538 1540 1542 1544 1547 1549 1551 1553 1555 1557 1559 1561 1562 1563 1565 1565 1566 1567 1568 1569 1570 1571 1572 1573 1574 1575 1576 1577 1578 1578 1579 1579 1580 1581 1581 1582 1583 1583 1584 1585 1585 1586 1586 1587
1496 1498 1500 1503 1504 1506 1509 1513 1515 1518 1520 1521 1523 1525 1527 1529 1531 1533 1535 1537 1539 1542 1544 1546 1548 1550 1551 1554 1556 1558 1559 1561 1562 1563 1564 1565 1566 1566 1568 1568 1569 1570 1571 1572 1574 1574 1576 1577 1577 1578 1578 1579 1579 1580 1580 1581 1582 1583 1583 1584 1584 1585 1585
1496 1498 1500 1503 1505 1506 1508 1511 1513 1514 1517 1519 1521 1523 1525 1528 1530 1531 1533 1535 1538 1540 1542 1545 1547 1549 1551 1553 1555 1556 1558 1559 1561 1562 1563 1564 1565 1566 1567 1567 1568 1569 1570 1571 1572 1573 1574 1575 1576 1576 1577 1577 1578 1579 1579 1580 1581 1581 1582 1583 1583 1584 1584
1497 1498 1499 1501 1502 1504 1505 1507 1510 1512 1514 1517 1518 1520 1522 1526 1530 1531 1531 1532 1534 1537 1540 1544 1547 1549 1551 1553 1554 1555 1557 1558 1559 1561 1562 1563 1564 1565 1566 1566 1567 1568 1569 1570 1571 1572 1573 1574 1575 1575 1576 1576 1577 1578 1578 1579 1580 1580 1581 1581 1582 1582 1583
1499 1501 1501 1501 1502 1502 1504 1505 1506 1508 1510 1512 1514 1517 1519 1523 1527 1530 1531 1532 1535 1539 1543 1546 1548 1549 1550 1552 1553 1555 1556 1558 1559 1560 1561 1562 1563 1564 1565 1566 1566 1567 1568 1569 1569 1570 1571 1572 1573 1574 1575 1575 1576 1577 1577 1578 1579 1579 1580 1580 1580 1581 1581
1499 1501 1502 1503 1503 1503 1504 1505 1505 1507 1508 1509 1512 1514 1516 1519 1523 1526 1529 1532 1535 1538 1541 1544 1546 1547 1549 1550 1551 1553 1555 1557 1559 1560 1562 1562 1562 1563 1564 1564 1565 1566 1566 1567 1568 1569 1570 1571 1572 1573 1573 1574 1575 1576 1576 1577 1577 1578 1578 1579 1579 1580 1580
1500 1499 1500 1502 1503 1503 1503 1504 1506 1508 1509 1509 1510 1512 1513 1516 1520 1523 1526 1529 1532 1535 1538 1540 1542 1545 1547 1549 1550 1551 1553 1554 1556 1557 1559 1560 1560 1561 1562 1563 1564 1565 1565 1566 1567 1568 1569 1570 1571 1571 1572 1573 1574 1574 1575 1575 1576 1576 1577 1578 1578 1578 1579
1504 1502 1502 1504 1504 1503 1503 1504 1506 1508 1509 1510 1510 1511 1512 1514 1518 1521 1523 1526 1529 1532 1535 1537 1540 1542 1545 1547 1548 1550 1551 1553 1555 1556 1557 1557 1556 1557 1559 1561 1562 1563 1565 1565 1566 1567 1568 1569 1569 1570 1571 1572 1572 1573 1573 1574 1574 1575 1575 1576 1576 1577 1577
1506 1505 1504 1504 1504 1504 1504 1505 1506 1507 1508 1509 1509 1510 1512 1515 1517 1519 1522 1525 1527 1530 1532 1535 1537 1540 1542 1544 1546 1548 1549 1551 1554 1556 1557 1557 1558 1558 1559 1559 1559 1561 1562 1564 1565 1566 1567 1567 1568 1568 1569 1570 1571 1571 1572 1572 1573 1573 1574 1574 1574 1575 1575
1508 1507 1506 1506 1505 1505 1506 1506 1506 1507 1507 1507 1507 1509 1511 1514 1516 1518 1521 1523 1525 1527 1530 1533 1536 1538 1540 1542 1544 1545 1547 1549 1551 1552 1554 1557 1558 1559 1559 1559 1558 1559 1560 1561 1563 1564 1565 1566 1566 1567 1568 1568 1569 1569 1570 1571 1571 1572 1572 1572 1573 1573 1573
1508 1509 1508 1508 1508 1507 1507 1506 1506 1507 1508 1508 1508 1509 1510 1513 1515 1517 1520 1522 1523 1525 1527 1531 1534 1536 1539 1541 1542 1543 1545 1547 1548 1550 1552 1554 1555 1557 1558 1558 1558 1558 1558 1558 1560 1562 1564 1565 1565 1566 1566 1566 1567 1567 1568 1569 1569 1570 1570 1571 1571 1572 1571
1509 1510 1510 1510 1510 1509 1509 1507 1506 1507 1508 1509 1510 1510 1511 1513 1514 1516 1518 1519 1521 1523 1526 1530 1533 1536 1539 1541 1541 1542 1544 1545 1546 1547 1549 1551 1552 1554 1556 1556 1555 1556 1557 1557 1557 1559 1561 1563 1564 1564 1564 1564 1565 1565 1565 1566 1567 1568 1568 1569 1569 1570 1570
1509 1511 1512 1512 1512 1511 1510 1510 1509 1508 1508 1509 1510 1510 1512 1513 1515 1516 1517 1518 1521 1523 1526 1529 1532 1535 1537 1538 1539 1540 1542 1544 1546 1546 1548 1549 1550 1551 1552 1553 1554 1554 1555 1555 1556 1557 1560 1561 1562 1563 1563 1563 1563 1563 1563 1564 1565 1565 1566 1566 1567 1568 1568
1509 1511 1513 1514 1514 1514 1513 1512 1511 1510 1510 1510 1511 1511 1512 1513 1514 1515 1517 1519 1521 1524 1526 1528 1530 1533 1534 1535 1537 1538 1540 1543 1545 1545 1546 1546 1547 1548 1549 1550 1551 1552 1553 1554 1555 1556 1557 1561 1563 1563 1561 1561 1561 1561 1561 1561 1562 1563 1563 1564 1565 1565 1566
1510 1512 1514 1516 1517 1516 1515 1515 1514 1513 1512 1512 1512 1513 1513 1513 1514 1516 1518 1521 1523 1524 1526 1528 1530 1532 1533 1534 1536 1537 1539 1541 1543 1543 1543 1543 1544 1545 1546 1547 1548 1549 1550 1551 1553 1554 1555 1559 1561 1559 1558 1558 1558 1558 1558 1559 1559 1560 1560 1561 1562 1563 1563
1511 1514 1516 1518 1519 1519 1519 1518 1517 1516 1515 1514 1515 1516 1516 1516 1516 1518 1519 1522 1524 1525 1526 1528 1530 1531 1532 1533 1534 1536 1537 1538 1539 1540 1541 1541 1542 1542 1543 1543 1544 1545 1546 1548 1550 1552 1553 1555 1556 1553 1553 1555 1555 1555 1555 1555 1555 1557 1558 1559 1559 1560 1561
1513 1516 1519 1521 1521 1521 1521 1521 1520 1519 1518 1518 1518 1518 1519 1519 1519 1520 1521 1523 1524 1526 1526 1528 1529 1530 1531 1532 1533 1534 1535 1536 1536 1538 1538 1539 1540 1540 1540 1540 1541 1542 1543 1545 1547 1550 1551 1552 1551 1549 1550 1551 1552 1551 1551 1551 1553 1555 1556 1556 1556 1556 1557
1516 1518 1521 1523 1523 1523 1522 1522 1522 1522 1522 1521 1521 1521 1521 1521 1521 1522 1523 1525 1526 1527 1527 1528 1530 1531 1531 1531 1532 1533 1534 1534 1535 1536 1537 1537 1537 1537 1537 1537 1538 1539 1540 1542 1545 1548 1549 1548 1546 1546 1546 1548 1549 1548 1547 1548 1551 1552 1552 1552 1553 1553 1553
1520 1522 1523 1525 1526 1526 1525 1524 1523 1524 1525 1525 1524 1523 1524 1524 1522 1522 1525 1527 1528 1529 1529 1530 1531 1531 1531 1531 1531 1532 1533 1534 1535 1536 1536 1536 1536 1537 1536 1536 1535 1535 1537 1539 1541 1544 1545 1545 1544 1544 1544 1544 1545 1545 1545 1546 1548 1549 1548 1549 1550 1550 1550
1524 1525 1525 1526 1527 1528 1528 1527 1525 1525 1526 1527 1527 1527 1527 1527 1524 1523 1525 1527 1528 1530 1531 1532 1533 1533 1533 1533 1533 1534 1535 1536 1537 1537 1536 1536 1538 1538 1536 1534 1534 1534 1535 1536 1538 1540 1542 1543 1543 1543 1542 1542 1542 1543 1544 1544 1545 1545 1546 1546 1547 1548 1547
1528 1528 1527 1528 1529 1529 1529 1529 1527 1527 1527 1528 1529 1529 1529 1529 1526 1524 1526 1528 1530 1532 1534 1534 1535 1535 1535 1535 1536 1537 1538 1537 1537 1537 1536 1537 1538 1537 1535 1534 1534 1534 1535 1536 1537 1538 1540 1540 1541 1542 1541 1541 1542 1542 1543 1543 1543 1543 1543 1544 1545 1545 1544
1531 1530 1529 1529 1530 1531 1531 1530 1530 1529 1530 1530 1531 1531 1531 1530 1529 1527 1528 1530 1532 1534 1536 1537 1537 1537 1537 1537 1539 1540 1540 1539 1538 1538 1537 1537 1537 1536 1535 1535 1535 1535 1536 1537 1538 1539 1539 1540 1540 1541 1541 1541 1542 1542 1542 1542 1542 1542 1542 1542 1542 1542 1542
1533 1532 1532 1532 1532 1532 1533 1533 1532 1533 1532 1533 1533 1534 1533 1533 1532 1532 1533 1534 1535 1536 1538 1539 1539 1540 1539 1540 1541 1542 1542 1541 1540 1539 1539 1538 1538 1537 1537 1537 1537 1538 1538 1539 1540 1540 1540 1540 1541 1541 1541 1542 1542 1542 1542 1542 1542 1542 1541 1541 1541 1541 1541
1534 1534 1534 1534 1534 1534 1535 1534 1535 1535 1535 1535 1535 1535 1536 1536 1536 1536 1536 1536 1537 1538 1539 1541 1541 1541 1541 1542 1542 1542 1542 1541 1541 1540 1540 1540 1539 1539 1539 1539 1540 1540 1541 1542 1542 1542 1541 1542 1542 1542 1542 1542 1542 1542 1542 1542 1542 1542 1541 1541 1541 1540 1540
1535 1536 1536 1536 1536 1537 1537 1537 1537 1537 1537 1537 1537 1538 1538 1538 1538 1538 1538 1539 1539 1540 1541 1542 1542 1543 1543 1543 1543 1543 1542 1542 1541 1541 1541 1541 1541 1540 1541 1541 1541 1542 1543 1544 1544 1543 1543 1543 1543 1543 1543 1543 1543 1543 1543 1542 1542 1542 1542 1541 1541 1541 1541
1537 1537 1538 1538 1539 1539 1539 1539 1540 1539 1540 1540 1540 1540 1541 1540 1540 1540 1540 1541 1541 1542 1543 1543 1544 1544 1544 1544 1543 1543 1543 1543 1542 1542 1542 1542 1542 1542 1542 1542 1542 1543 1544 1544 1545 1545 1545 1544 1544 1544 1545 1544 1544 1544 1543 1543 1543 1542 1542 1542 1541 1541 1541
1538 1538 1539 1539 1540 1541 1541 1542 1542 1542 1542 1542 1542 1542 1542 1542 1542 1542 1542 1542 1543 1543 1544 1544 1544 1544 1544 1544 1544 1544 1544 1543 1543 1543 1543 1543 1543 1543 1543 1543 1543 1544 1544 1545 1545 1545 1545 1545 1545 1545 1545 1545 1545 1545 1544 1543 1543 1542 1542 1542 1541 1541 1541
1539 1539 1540 1540 1541 1541 1542 1542 1543 1543 1543 1543 1544 1544 1544 1544 1544 1543 1543 1544 1544 1544 1545 1545 1545 1545 1545 1544 1544 1544 1544 1544 1544 1544 1544 1544 1544 1544 1544 1544 1544 1544 1544 1545 1545 1545 1545 1545 1545 1545 1545 1544 1544 1544 1543 1543 1542 1542 1541 1541 1541 1541 1540
1540 1540 1541 1541 1542 1542 1543 1543 1543 1543 1543 1543 1544 1544 1544 1544 1545 1544 1544 1545 1545 1545 1545 1545 1545 1545 1545 1545 1545 1545 1544 1544 1544 1544 1545 1545 1545 1545 1545 1545 1545 1545 1545 1545 1545 1545 1545 1545 1545 1544 1544 1544 1543 1543 1542 1542 1541 1541 1540 1540 1540 1540 1540